Location: Sihaung
(22.8641°N, 94.0549°E)
Time: 21:05:06
(UTC+00:00)

Daily predictions for brighter satellites

Satellite Brightness Start Highest point End
(mag) Time Altitude Azimuth Time Altitude Azimuth Time Altitude Azimuth
COSMOS 2455 2.9 12:06:02 10° NNW 12:12:03 85° ENE 12:18:03 10° SSE
Okean O Rocket 3.4 12:10:36 10° SSW 12:14:37 37° W 12:18:38 10° NNW
ERS-2 2.0 12:12:35 10° NNE 12:16:13 67° ESE 12:19:50 10° S
Cosmos 1602 4.0 12:14:22 10° S 12:18:13 73° W 12:22:05 10° N
CZ-2C R/B 3.4 12:12:37 10° SSE 12:18:26 86° WSW 12:24:08 10° NNW
SAR-Lupe-1 4.0 12:15:43 10° NNE 12:19:17 67° ESE 12:22:49 10° S
Cosmos 2322 Rocket 3.3 12:14:06 10° SW 12:19:28 48° WNW 12:24:52 10° N
Cosmos 1271 Rocket 2.6 12:16:02 10° N 12:19:45 66° E 12:23:30 10° SSE
DMSP B5D1-3 4.5 12:14:42 10° NNE 12:19:51 72° ESE 12:24:58 10° S
PSLV R/B 4.0 12:16:09 10° N 12:20:12 83° WNW 12:24:14 10° SSW
Cosmos 2154 Rocket 4.0 12:14:57 10° S 12:21:10 77° E 12:27:21 10° N
Cosmos 1610 Rocket 4.5 12:18:57 10° S 12:25:06 82° E 12:31:19 10° N
Cosmos 1500 3.2 12:22:57 10° S 12:26:35 52° E 12:30:12 10° NNE
Delta 2 Rocket 3.9 12:20:12 10° WSW 12:26:46 79° SSE 12:32:06 13° ENE
CZ-2D R/B 4.0 12:23:43 10° S 12:27:26 55° W 12:31:09 10° NNW
Cosmos 1933 Rocket 3.7 12:23:20 10° SSE 12:27:29 47° E 12:31:38 10° NNE
Delta 7925 Rocket 3.5 12:23:32 10° W 12:28:19 58° N 12:32:11 14° ENE
Nadezhda 3 Rocket 4.3 12:22:46 10° NNE 12:28:46 43° E 12:34:45 10° SSE
COSMOS 2428 3.7 12:24:33 10° SSE 12:28:58 24° ESE 12:33:23 10° NE
Meteor 1-14 Rocket 4.1 12:25:57 10° S 12:31:33 73° E 12:37:05 10° N
Cosmos 2219 Rocket 2.7 12:32:07 10° SSE 12:37:08 35° ESE 12:42:10 10° NE
USA 234 4.1 12:35:46 10° NNE 12:42:03 51° NW 12:48:19 10° WSW
Cosmos 1862 Rocket 3.5 12:39:24 10° N 12:43:51 69° E 12:48:15 10° SSE
Lacrosse 4 Rocket 1.7 12:40:18 10° S 12:44:22 45° ESE 12:48:32 10° NE
ARGOS 3.2 12:40:07 10° SSE 12:45:22 56° ENE 12:50:39 10° N
YAOGAN 1 2.5 12:41:09 10° SSE 12:45:27 84° ENE 12:49:47 10° N
Cosmos 2227 4.3 12:39:50 10° NNW 12:45:35 82° WSW 12:51:17 10° SSE
Hubble Space Telescope 0.9 12:42:41 10° WSW 12:46:44 57° SSE 12:48:47 26° E
GPS 2-12 Rocket1 4.1 12:43:03 10° SW 12:47:23 34° SSE 12:49:50 21° ESE
Helios 1A Rocket 3.2 12:44:39 10° SSE 12:48:32 44° ENE 12:52:23 10° N
Delta 168 4.4 12:41:20 10° WSW 12:49:40 54° SSE 12:53:10 24° E
GP-B 3.2 12:47:47 10° SSE 12:52:05 53° E 12:56:24 10° N
SL-8 Rocket 4.1 12:47:34 10° SSE 12:53:35 50° E 12:59:34 10° NNE
Palapa 6 Rocket 4.3 12:46:40 10° W 12:53:54 90° S 12:59:05 25° E
Cosmos 962 Rocket 4.4 12:49:23 10° S 12:55:32 85° E 13:01:47 10° N
Meteor 1-18 Rocket 4.2 12:49:43 10° N 12:55:38 73° E 13:01:27 10° SSE
APEX 2.3 12:53:06 10° NNW 12:55:48 83° WSW 12:57:58 16° SSE
Cosmos 2322 3.6 12:50:25 10° SSW 12:56:06 79° ESE 13:01:50 10° NNE
Cosmos 2263 Rocket 2.8 12:51:46 10° NNW 12:57:12 56° WSW 13:02:38 10° S
H-2A R/B 2.6 12:53:58 10° S 12:59:18 65° W 13:04:43 10° NNW
NOSS 3-2 (A) 3.6 12:55:27 10° S 13:00:17 37° ESE 13:02:07 29° ENE
Cosmos 968 Rocket 3.4 12:57:57 10° NNW 13:03:13 89° ENE 13:08:28 10° SSE
Cosmos 1486 Rocket 3.9 13:00:42 10° NNW 13:06:01 82° ENE 13:11:20 10° SSE
Cosmos 2366 rocket 4.0 13:02:20 10° SSE 13:08:24 54° E 13:14:31 10° NNE
CZ-2C R/B 3.5 13:04:28 10° N 13:09:40 50° WNW 13:14:44 10° SSW
CZ-4 R/B 3.4 13:10:07 10° SSW 13:13:25 28° W 13:16:45 10° NW
GPS 2-14 Rocket1 2.6 13:12:16 10° W 13:16:02 62° S 13:16:09 62° S
Cosmos 2341 Rocket 4.2 13:09:51 10° S 13:16:11 72° W 13:22:28 10° N
Delta 128 4.5 13:10:34 10° WNW 13:17:04 59° N 13:18:50 41° ENE
CSL-04 Rocket 3.6 13:11:52 10° SSE 13:17:26 90° W 13:22:59 10° NNW
DMSP B5D2-2 4.3 13:12:47 10° N 13:17:57 68° WNW 13:23:05 10° SSW
CSL-04 Debris 4.2 13:13:08 10° S 13:18:33 80° WSW 13:24:00 10° NNW
Okean 1-7 4.4 13:15:57 10° N 13:17:54 25° NNE 13:17:54 25° NNE
Cosmos 1869 Rocket 3.4 13:17:21 10° S 13:21:40 86° E 13:26:02 10° N
CENTAUR R/B 3.4 13:22:21 10° S 13:24:46 25° SSE 13:24:46 25° SSE
SME Rocket 3.5 13:23:58 10° NNE 13:30:05 80° WNW 13:34:21 10° SSW
Cosmos 1844 Rocket 3.4 13:27:09 10° N 13:30:55 37° NNE 13:30:55 37° NNE
Cosmos 1354 Rocket 4.0 13:27:21 10° N 13:31:58 60° NE 13:31:58 60° NE
Cosmos 2218 Rocket 4.1 13:28:41 10° S 13:35:03 81° W 13:41:28 10° N
SWIFT 3.0 13:33:32 10° W 13:36:46 48° SW 13:36:46 48° SW
Cosmos 44 Rocket 3.3 13:33:52 10° NNW 13:39:00 87° N 13:39:00 87° N
Cosmos 1503 Rocket 3.9 13:37:41 10° NNW 13:42:50 80° WSW 13:43:08 76° SSW
Cosmos 2333 Rocket 3.4 13:37:37 10° SW 13:42:53 40° WNW 13:48:13 10° N
NOSS 0 Rocket 4.4 13:36:58 10° S 13:41:18 45° SSE 13:41:18 45° SSE
FUSE 4.1 13:41:03 10° W 13:46:01 69° NW 13:46:01 69° NW
Centaur D-1A AC-31 4.5 13:48:44 10° S 14:28:38 11° ENE 23:35:40 10° ESE
COSMOS 2428 4.4 14:08:04 10° SW 14:12:58 30° WNW 14:17:49 10° N
USA 238 DEB 4.1 14:11:57 10° SW 14:18:06 55° WNW 14:18:06 55° WNW
USA 238 4.0 14:12:01 10° SW 14:18:08 56° WNW 14:18:08 56° WNW
Hubble Space Telescope 4.1 14:23:57 10° W 14:24:07 11° W 14:24:07 11° W
CZ-3 R/B 4.1 20:54:55 49° SSW 21:02:46 62° SSE 21:13:31 10° E
USA 234 4.5 20:59:49 10° ESE 21:04:49 35° ENE 21:04:49 35° ENE
SL-16 R/B 3.6 21:42:55 10° N 21:48:04 35° ENE 21:53:13 10° SE
CZ-4C R/B 3.5 21:53:33 24° SE 21:54:53 28° ESE 21:59:00 10° NE
Cosmos 1745 Rocket 4.3 21:51:10 10° N 21:57:25 65° E 22:03:42 10° SSE
ATLAS CENTAUR R/B 2.4 22:03:51 48° E 22:03:51 48° E 22:07:35 10° SE
ATLAS 5 CENTAUR R/B 3.7 22:02:02 16° SE 22:03:32 20° ESE 22:06:23 10° ENE
Cosmos 2344 4.1 22:04:59 39° NW 22:04:59 39° NW 22:10:44 10° N
DELTA 4 R/B 3.3 22:06:34 31° E 22:06:34 31° E 22:07:48 10° E
Cosmos 2251 Rocket 3.4 22:13:33 70° SSW 22:14:11 86° WNW 22:19:32 10° NNE
Skynet4D Del rocket 3.3 22:21:16 67° WSW 22:22:01 89° S 22:27:23 10° ENE
Fermi 4.1 22:22:24 56° NNE 22:22:24 56° NNE 22:26:03 10° E
METEOR-M 4.0 22:17:42 10° N 22:22:59 68° WNW 22:24:42 42° SW
Cosmos 1743 Rocket 3.8 22:20:24 10° N 22:24:51 70° E 22:29:16 10° SSE
FENGYUN 3A 4.4 22:19:52 10° N 22:23:30 36° NW 22:23:30 36° NW
OAO 3 Rocket 4.1 22:30:01 33° NNW 22:30:15 33° NNW 22:34:36 10° NE
Exosat Rocket 4.3 22:22:01 10° NNW 22:30:45 61° W 22:36:50 10° S
ASTRO E2 4.2 22:30:28 25° N 22:30:57 26° N 22:34:20 10° ENE
SeaSat 1 4.4 22:28:49 10° ESE 22:33:00 29° ENE 22:37:12 10° N
X-37B 3.4 22:34:17 11° N 22:35:40 14° NNE 22:37:21 10° ENE
Cosmos 909 Rocket 4.2 22:29:36 16° SW 22:35:48 66° WNW 22:42:12 10° NNE
Cosmos 2360 Rocket 3.5 22:31:57 10° N 22:37:16 40° ENE 22:42:32 10° SE
CZ-4B R/B 3.4 22:35:52 10° N 22:39:29 69° WNW 22:39:58 59° SW
Meteor 1-31 Rocket 2.6 22:39:17 10° N 22:43:05 62° WNW 22:45:00 27° SSW
Cosmos 2315 Rocket 4.0 22:38:31 10° SSW 22:44:33 52° W 22:50:35 10° N
USA 234 3.6 22:42:22 10° SSE 22:48:28 42° SW 22:52:14 22° WNW
Mugunghwa Rocket 4.2 22:47:44 28° W 22:51:05 56° SSW 22:57:17 10° SE
Cosmos 407 Rocket 3.7 22:46:56 10° S 22:52:09 73° ESE 22:57:18 10° NNE
Cosmos 1437 Rocket 3.9 22:49:23 10° SSE 22:53:20 47° E 22:57:15 10° NNE
H-2A R/B 3.3 22:50:18 10° NNE 22:54:06 60° E 22:57:51 10° S
Sich 1 3.8 22:50:09 10° N 22:54:27 54° E 22:58:43 10° SSE
CZ-4B R/B 3.4 22:52:18 10° SE 22:55:08 29° ENE 22:57:54 10° NNE
GPS 2-04 Rocket1 4.2 22:54:59 20° NW 22:55:46 21° NNW 22:58:45 10° NE
Lacrosse 4 Rocket 3.9 22:52:58 10° N 22:56:32 24° ENE 23:00:03 10° ESE
NOSS 3-4 (A) 3.2 22:50:57 10° SW 22:56:43 68° WNW 23:02:36 10° NNE
NOSS 3-4 (C) 3.2 22:51:02 10° SSW 22:56:48 69° WNW 23:02:42 10° NNE
IUS-7 SRM-1 4.1 22:55:17 28° W 22:57:25 67° SSW 23:14:18 10° ESE
Landsat 5 4.2 22:55:05 10° SSW 22:57:57 28° WSW 22:57:57 28° WSW
H-2A R/B 2.0 22:55:15 10° S 22:59:33 59° WSW 23:03:46 10° NNW
BREEZE-M DEB (TANK) 4.4 22:48:59 10° NW 23:00:42 42° WSW 23:04:13 10° S
SKYMED 2 4.3 22:56:38 10° SSE 23:00:52 55° ENE 23:05:07 10° N
Cosmos 1500 Rocket 4.1 22:57:59 10° NNW 23:01:57 35° W 23:05:57 10° SSW
Cosmos 2297 Rocket 4.2 22:58:06 10° SSE 23:02:58 30° ESE 23:07:49 10° NE
Cosmos 614 Rocket 4.4 22:58:54 10° SW 23:03:46 40° WNW 23:08:40 10° N
Milstar 3 Cent rocket 2.4 23:03:05 20° WNW 23:05:59 45° N 23:10:50 10° ENE
Cosmos 2322 Rocket 2.4 23:01:51 10° NNW 23:07:16 48° WSW 23:12:42 10° S
MOS 1 Rocket 3.2 23:03:30 10° SSE 23:07:44 76° ENE 23:12:04 10° N
ATLAS 2AS CENTAUR R/B 3.0 23:03:16 10° SSW 23:11:02 89° WNW 23:19:00 10° NNE
ADEOS 4.4 23:11:30 10° NNW 23:15:50 27° WNW 23:20:11 10° SW
Cosmos 1151 Rocket 3.0 23:15:53 10° SSW 23:20:09 58° W 23:24:25 10° N
Cosmos 1933 4.2 23:18:30 10° SW 23:21:57 28° W 23:25:26 10° NNW
Cosmos 1633 Rocket 3.9 23:19:01 10° N 23:23:18 55° E 23:27:34 10° SSE
YAOGAN 6 2.4 23:20:31 10° N 23:23:59 73° WNW 23:27:26 10° SSW
Cosmos 2219 Rocket 3.9 23:19:05 10° N 23:24:14 36° ENE 23:29:25 10° SE
Meteosat 1 Rocket2 3.8 23:18:30 12° WNW 23:25:08 75° NNE 23:29:50 10° E
Cosmos 1992 Rocket 4.0 23:20:23 10° NNW 23:25:29 60° WSW 23:30:34 10° S
Cosmos 2074 Rocket 4.3 23:21:51 10° N 23:28:02 74° E 23:34:12 10° S
RESURS DK-1 4.5 23:24:33 10° SSE 23:28:13 31° ESE 23:31:51 10° NE
SJ-7 4.3 23:26:07 10° N 23:30:06 68° WNW 23:34:08 10° SSW
USA 215 4.4 23:24:36 10° NE 23:30:50 46° SE 23:37:02 10° SSW
SL-16 R/B 3.4 23:27:52 10° WNW 23:31:48 20° W 23:35:44 10° SW
Envisat 3.0 23:28:37 10° N 23:33:37 62° WNW 23:38:36 10° SSW
Cosmos 2219 3.9 23:28:32 10° S 23:34:08 61° ESE 23:39:42 10° NNE
Cosmos 1515 Rocket 3.5 23:37:27 10° S 23:41:46 79° W 23:46:06 10° N
CZ-4C R/B 3.3 23:40:05 10° W 23:43:16 18° NW 23:46:43 10° N
Cosmos 1140 Rocket 4.1 23:39:29 10° SW 23:44:14 36° WNW 23:48:59 10° N
Cosmos 2322 3.9 23:39:11 10° NNW 23:44:51 80° ENE 23:50:29 10° SSE
Sakura Rocket 3.7 23:41:48 10° WNW 23:45:09 32° N 23:48:30 10° ENE
Cosmos 1328 Rocket 4.2 23:42:09 10° SSW 23:46:00 32° W 23:49:53 10° NNW
